contact:dominique.lefevre@mio.osupytheas.fr, maurice.libes@osupytheas.fr, didier.mallarino@osupytheas.fr
Project:EMSO http://www.emso-fr.org/EMSO-France
Depth: 2436.0 m
Title:EMSO Ligure Ouest : Data MII capteur AQUADOPP
Date,Latitude,Longitude,X_East,Y_North,Z_Up,Amplitude_X,Amplitude_Y,Amplitude_Z,Batterie,SoundSpeed,Heading,Pitch,Roll,Pressure,TIS,Speed,Direction
, degrees North, degrees East, m.s-1, m.s-1,m.s-1, 1, 1, 1, Volt, m.s-1, degree, degree, degree, dbar, degree_C, m.s-1, degree
2021-04-24T00:04:03,42.805,6.029,0.046,-0.026,0.02,103.0,104.0,102.0,13.4,1505.2,326.7,-0.8,1.8,2471.052,13.28,0.052,119.5
2021-04-24T00:07:03,42.805,6.029,0.033,-0.01,0.031,103.0,105.0,102.0,13.3,1505.2,327.6,-0.8,1.8,2471.054,13.28,0.034,106.9
2021-04-24T00:10:03,42.805,6.029,0.023,-0.018,-0.008,103.0,104.0,102.0,13.3,1505.2,325.4,-0.8,1.8,2471.071,13.28,0.029,128.0
2021-04-24T00:13:03,42.805,6.029,0.019,-0.021,0.029,103.0,104.0,102.0,13.4,1505.2,328.2,-0.7,1.8,2471.063,13.28,0.028,137.9
2021-04-24T00:16:03,42.805,6.029,0.014,-0.018,0.013,104.0,104.0,102.0,13.4,1505.2,328.2,-0.8,1.8,2471.035,13.28,0.022,142.1
2021-04-24T00:19:03,42.805,6.029,0.032,-0.025,0.014,104.0,104.0,102.0,13.4,1505.2,325.6,-0.8,1.8,2470.995,13.28,0.04,128.0
2021-04-24T00:22:03,42.805,6.029,0.023,-0.032,0.0,103.0,104.0,102.0,13.3,1505.2,324.8,-0.8,1.8,2470.98,13.28,0.039,144.3
2021-04-24T00:25:03,42.805,6.029,0.031,-0.033,-0.021,104.0,103.0,103.0,13.4,1505.2,324.4,-0.7,1.9,2470.993,13.28,0.045,136.8
2021-04-24T00:28:03,42.805,6.029,0.028,-0.017,0.011,103.0,104.0,102.0,13.4,1505.2,324.2,-0.7,1.8,2470.994,13.28,0.032,121.3
2021-04-24T00:31:03,42.805,6.029,0.017,-0.029,0.026,103.0,104.0,101.0,13.3,1505.2,323.9,-0.7,1.8,2470.957,13.28,0.033,149.6
2021-04-24T00:34:03,42.805,6.029,0.034,-0.04,0.0,101.0,104.0,103.0,13.4,1505.2,327.8,-0.8,1.8,2470.818,13.28,0.052,139.6
2021-04-24T00:37:03,42.805,6.029,0.031,-0.039,-0.023,103.0,102.0,103.0,13.3,1505.2,329.2,-0.8,1.9,2470.718,13.28,0.049,141.5
2021-04-24T00:40:03,42.805,6.029,0.033,-0.024,-0.002,103.0,103.0,102.0,13.4,1505.2,325.5,-0.8,1.8,2470.662,13.28,0.04,126.0
2021-04-24T00:43:03,42.805,6.029,0.021,-0.022,0.004,104.0,104.0,102.0,13.4,1505.2,325.9,-0.8,1.8,2470.576,13.28,0.03,136.3
2021-04-24T00:46:03,42.805,6.029,0.016,-0.018,-0.019,104.0,104.0,102.0,13.3,1505.2,324.6,-0.8,1.9,2470.544,13.28,0.024,138.4
2021-04-24T00:49:03,42.805,6.029,0.015,-0.018,-0.019,103.0,105.0,102.0,13.3,1505.2,324.2,-0.8,1.8,2470.447,13.28,0.023,140.2
2021-04-24T00:52:03,42.805,6.029,0.015,-0.022,0.002,103.0,103.0,102.0,13.4,1505.2,326.9,-0.8,1.8,2470.385,13.28,0.026,145.7
2021-04-24T00:55:03,42.805,6.029,0.017,-0.018,0.034,104.0,103.0,102.0,13.4,1505.2,325.6,-0.8,1.8,2470.337,13.28,0.024,136.6
2021-04-24T00:58:03,42.805,6.029,0.027,-0.024,0.013,105.0,104.0,103.0,13.3,1505.2,324.5,-0.8,1.8,2470.311,13.28,0.036,131.6
2021-04-24T01:04:03,42.805,6.029,0.026,-0.012,0.0,104.0,103.0,103.0,13.4,1505.2,324.1,-0.8,1.8,2470.485,13.28,0.028,114.8
2021-04-24T01:07:03,42.805,6.029,0.004,-0.023,0.014,105.0,104.0,104.0,13.4,1505.2,325.5,-0.7,1.8,2470.54,13.28,0.023,170.1
2021-04-24T01:10:03,42.805,6.029,0.029,-0.004,0.006,104.0,102.0,103.0,13.4,1505.2,324.6,-0.7,1.8,2470.565,13.28,0.029,97.8
2021-04-24T01:13:03,42.805,6.029,0.026,-0.001,0.034,103.0,105.0,102.0,13.3,1505.2,324.4,-0.8,1.8,2470.647,13.28,0.026,92.2
2021-04-24T01:16:03,42.805,6.029,0.029,-0.022,0.006,104.0,104.0,102.0,13.4,1505.2,328.7,-0.7,1.8,2470.631,13.28,0.036,127.2
2021-04-24T01:19:03,42.805,6.029,0.035,-0.015,0.012,104.0,105.0,101.0,13.4,1505.2,327.6,-0.8,1.8,2470.597,13.28,0.038,113.2
2021-04-24T01:22:03,42.805,6.029,0.021,-0.022,0.031,103.0,106.0,103.0,13.3,1505.2,327.3,-0.7,1.8,2470.527,13.28,0.03,136.3
2021-04-24T01:25:03,42.805,6.029,0.005,-0.009,0.017,104.0,102.0,102.0,13.4,1505.2,328.6,-0.8,1.8,2470.495,13.28,0.01,150.9
2021-04-24T01:28:03,42.805,6.029,0.01,-0.022,0.026,106.0,103.0,101.0,13.4,1505.2,328.8,-0.7,1.8,2470.471,13.28,0.024,155.6
2021-04-24T01:31:03,42.805,6.029,0.006,-0.012,0.008,104.0,104.0,103.0,13.3,1505.2,326.1,-0.7,1.8,2470.479,13.28,0.013,153.4
2021-04-24T01:34:03,42.805,6.029,0.014,-0.02,0.02,103.0,104.0,103.0,13.4,1505.2,328.0,-0.7,1.9,2470.454,13.28,0.024,145.0
2021-04-24T01:37:03,42.805,6.029,0.038,-0.024,0.007,102.0,103.0,102.0,13.3,1505.2,326.8,-0.8,1.8,2470.424,13.28,0.044,122.3
2021-04-24T01:40:03,42.805,6.029,0.018,-0.034,0.02,104.0,102.0,102.0,13.4,1505.2,326.4,-0.8,1.8,2470.411,13.28,0.038,152.1
2021-04-24T01:43:03,42.805,6.029,0.029,-0.008,0.033,103.0,103.0,101.0,13.4,1505.2,325.0,-0.8,1.8,2470.424,13.28,0.03,105.4
2021-04-24T01:46:03,42.805,6.029,0.022,-0.023,-0.003,104.0,103.0,103.0,13.4,1505.2,323.6,-0.7,1.8,2470.481,13.28,0.031,136.3
2021-04-24T01:49:03,42.805,6.029,0.02,-0.024,0.002,103.0,103.0,103.0,13.4,1505.2,324.9,-0.8,1.8,2470.48,13.28,0.031,140.2
2021-04-24T01:52:03,42.805,6.029,0.029,-0.019,-0.007,105.0,104.0,102.0,13.4,1505.2,327.3,-0.8,1.8,2470.44,13.28,0.034,123.2
2021-04-24T01:55:03,42.805,6.029,0.015,-0.004,0.033,104.0,101.0,102.0,13.4,1505.2,327.7,-0.8,1.8,2470.38,13.28,0.015,104.9
2021-04-24T01:58:03,42.805,6.029,-0.003,-0.019,-0.004,103.0,104.0,101.0,13.4,1505.2,328.1,-0.8,1.9,2470.374,13.28,0.019,189.0
2021-04-24T02:04:03,42.805,6.029,0.013,-0.029,-0.016,103.0,103.0,102.0,13.4,1505.2,327.2,-0.7,1.9,2470.298,13.28,0.031,155.9
2021-04-24T02:07:03,42.805,6.029,0.017,-0.012,0.036,103.0,102.0,101.0,13.4,1505.2,324.6,-0.8,1.8,2470.242,13.28,0.02,125.2
2021-04-24T02:10:03,42.805,6.029,0.011,-0.002,0.024,104.0,103.0,101.0,13.4,1505.2,327.4,-0.8,1.8,2470.265,13.28,0.011,100.3
2021-04-24T02:13:03,42.805,6.029,0.054,-0.035,0.005,102.0,103.0,102.0,13.3,1505.2,324.9,-0.7,1.8,2470.271,13.28,0.064,123.0
2021-04-24T02:16:03,42.805,6.029,0.022,-0.034,-0.022,104.0,105.0,102.0,13.4,1505.2,323.9,-0.7,1.8,2470.252,13.28,0.04,147.1
2021-04-24T02:19:03,42.805,6.029,-0.001,-0.011,0.006,101.0,104.0,102.0,13.3,1505.2,325.1,-0.7,1.8,2470.285,13.28,0.011,185.2
2021-04-24T02:22:03,42.805,6.029,0.005,-0.019,0.014,104.0,104.0,100.0,13.4,1505.2,325.7,-0.8,1.8,2470.291,13.28,0.019,165.3
2021-04-24T02:25:03,42.805,6.029,0.023,-0.015,0.01,103.0,103.0,101.0,13.4,1505.2,324.1,-0.8,1.8,2470.335,13.28,0.027,123.1
2021-04-24T02:28:03,42.805,6.029,0.016,-0.016,-0.003,102.0,102.0,102.0,13.4,1505.2,324.7,-0.8,1.8,2470.336,13.28,0.022,135.0
2021-04-24T02:31:03,42.805,6.029,0.034,-0.023,-0.002,102.0,104.0,102.0,13.4,1505.2,329.1,-0.8,1.8,2470.358,13.28,0.041,124.1
2021-04-24T02:34:03,42.805,6.029,0.022,-0.033,-0.001,103.0,103.0,102.0,13.4,1505.2,327.9,-0.8,1.9,2470.399,13.28,0.039,146.3
2021-04-24T02:37:03,42.805,6.029,0.021,-0.038,-0.009,103.0,104.0,102.0,13.4,1505.2,327.9,-0.7,1.8,2470.362,13.28,0.043,151.1
2021-04-24T02:40:03,42.805,6.029,0.013,0.01,0.01,103.0,103.0,100.0,13.3,1505.2,327.8,-0.8,1.8,2470.339,13.28,0.016,52.4
2021-04-24T02:43:03,42.805,6.029,0.012,-0.012,0.007,103.0,102.0,101.0,13.4,1505.2,326.3,-0.7,1.8,2470.262,13.28,0.016,135.0
2021-04-24T02:46:03,42.805,6.029,0.014,-0.029,0.0,103.0,103.0,101.0,13.3,1505.2,327.2,-0.7,1.8,2470.237,13.28,0.032,154.2
2021-04-24T02:49:03,42.805,6.029,0.047,-0.007,0.026,102.0,103.0,102.0,13.4,1505.2,326.6,-0.8,1.8,2470.259,13.28,0.047,98.5
2021-04-24T02:52:03,42.805,6.029,0.008,-0.033,0.004,101.0,104.0,103.0,13.4,1505.2,326.1,-0.8,1.8,2470.185,13.28,0.033,166.4
2021-04-24T02:55:03,42.805,6.029,0.048,-0.032,0.0,102.0,101.0,102.0,13.4,1505.2,324.8,-0.8,1.8,2470.193,13.28,0.057,123.7
2021-04-24T02:58:03,42.805,6.029,0.012,-0.027,0.004,102.0,102.0,102.0,13.4,1505.2,325.2,-0.7,1.8,2470.164,13.28,0.029,156.0
2021-04-24T03:04:03,42.805,6.029,0.005,-0.025,-0.002,103.0,103.0,102.0,13.4,1505.2,324.8,-0.8,1.8,2470.103,13.28,0.025,168.7
2021-04-24T03:07:03,42.805,6.029,0.026,-0.024,0.007,102.0,103.0,102.0,13.4,1505.2,325.3,-0.7,1.9,2470.025,13.28,0.035,132.7
2021-04-24T03:10:03,42.805,6.029,0.008,-0.028,-0.033,103.0,102.0,102.0,13.4,1505.2,324.3,-0.7,1.9,2469.945,13.28,0.029,164.1
2021-04-24T03:13:03,42.805,6.029,0.017,-0.017,0.0,102.0,102.0,102.0,13.4,1505.2,325.2,-0.8,1.8,2469.761,13.28,0.024,135.0
2021-04-24T03:16:03,42.805,6.029,0.018,-0.035,-0.001,102.0,103.0,101.0,13.3,1505.2,327.2,-0.7,1.8,2469.705,13.28,0.039,152.8
2021-04-24T03:19:03,42.805,6.029,0.014,-0.034,0.0,102.0,101.0,101.0,13.3,1505.2,327.6,-0.8,1.8,2469.615,13.28,0.036,157.6
2021-04-24T03:22:03,42.805,6.029,0.001,-0.011,0.001,102.0,102.0,101.0,13.4,1505.2,324.4,-0.7,1.8,2469.659,13.28,0.011,174.8
2021-04-24T03:25:03,42.805,6.029,-0.004,-0.013,-0.018,102.0,102.0,101.0,13.4,1505.2,328.5,-0.7,1.8,2469.678,13.28,0.013,197.1
2021-04-24T03:28:03,42.805,6.029,0.007,-0.019,0.016,103.0,102.0,102.0,13.4,1505.2,325.6,-0.7,1.8,2469.706,13.28,0.02,159.8
2021-04-24T03:31:03,42.805,6.029,0.016,-0.035,0.012,109.0,103.0,102.0,13.3,1505.2,324.7,-0.7,1.8,2469.724,13.28,0.038,155.4
2021-04-24T03:34:03,42.805,6.029,0.018,-0.03,-0.009,103.0,104.0,101.0,13.4,1505.2,327.8,-0.8,1.8,2469.69,13.28,0.034,149.0
2021-04-24T03:37:03,42.805,6.029,0.02,0.004,0.046,102.0,102.0,102.0,13.4,1505.2,326.7,-0.8,1.8,2469.792,13.28,0.02,78.7
2021-04-24T03:40:03,42.805,6.029,0.026,-0.01,0.019,102.0,100.0,102.0,13.4,1505.2,327.3,-0.8,1.8,2469.774,13.28,0.027,111.0
2021-04-24T03:43:03,42.805,6.029,0.021,-0.014,0.026,102.0,103.0,101.0,13.3,1505.2,324.6,-0.7,1.8,2469.841,13.28,0.025,123.7
2021-04-24T03:46:03,42.805,6.029,0.012,-0.021,0.003,102.0,103.0,101.0,13.3,1505.2,324.9,-0.8,1.8,2469.89,13.28,0.024,150.3
2021-04-24T03:49:03,42.805,6.029,0.011,-0.024,-0.011,102.0,102.0,102.0,13.3,1505.2,323.8,-0.8,1.8,2469.889,13.28,0.026,155.4
2021-04-24T03:52:03,42.805,6.029,0.014,-0.014,-0.003,102.0,103.0,102.0,13.3,1505.2,323.6,-0.8,1.8,2469.879,13.28,0.019,135.0
2021-04-24T03:55:03,42.805,6.029,-0.007,-0.016,0.0,103.0,102.0,101.0,13.3,1505.2,329.1,-0.7,1.8,2469.897,13.28,0.017,203.6
2021-04-24T03:58:03,42.805,6.029,0.002,-0.02,-0.039,102.0,102.0,102.0,13.4,1505.2,326.6,-0.7,1.8,2469.891,13.28,0.02,174.3
2021-04-24T04:04:03,42.805,6.029,0.008,-0.01,0.001,100.0,102.0,101.0,13.4,1505.2,328.7,-0.7,1.8,2469.964,13.28,0.012,141.3
2021-04-24T04:07:03,42.805,6.029,0.037,-0.024,0.006,102.0,102.0,101.0,13.3,1505.2,324.0,-0.7,1.9,2469.907,13.28,0.044,123.0
2021-04-24T04:10:03,42.805,6.029,0.02,-0.008,0.033,102.0,102.0,102.0,13.4,1505.2,324.4,-0.8,1.8,2469.894,13.28,0.021,111.8
2021-04-24T04:13:03,42.805,6.029,0.002,-0.022,0.0,101.0,101.0,103.0,13.3,1505.2,325.9,-0.8,1.8,2469.908,13.28,0.022,174.8
2021-04-24T04:16:03,42.805,6.029,0.015,-0.027,0.023,104.0,102.0,100.0,13.4,1505.2,325.6,-0.7,1.8,2469.827,13.28,0.03,150.9
2021-04-24T04:19:03,42.805,6.029,0.024,-0.015,0.025,103.0,102.0,101.0,13.3,1505.2,323.7,-0.8,1.8,2469.906,13.28,0.028,122.0
2021-04-24T04:22:03,42.805,6.029,0.011,-0.005,0.044,103.0,103.0,101.0,13.4,1505.2,324.6,-0.7,1.8,2469.885,13.28,0.012,114.4
2021-04-24T04:25:03,42.805,6.029,0.014,-0.015,0.003,104.0,103.0,100.0,13.4,1505.2,325.3,-0.7,1.8,2469.833,13.28,0.02,137.0
2021-04-24T04:28:03,42.805,6.029,-0.004,-0.017,0.0,101.0,101.0,101.0,13.4,1505.2,327.0,-0.7,1.8,2469.861,13.28,0.017,193.2
2021-04-24T04:31:03,42.805,6.029,0.03,-0.012,0.02,103.0,100.0,102.0,13.3,1505.2,323.8,-0.8,1.8,2469.879,13.28,0.032,111.8
2021-04-24T04:34:03,42.805,6.029,0.02,-0.013,0.042,102.0,102.0,102.0,13.4,1505.2,327.1,-0.7,1.8,2469.889,13.28,0.023,123.0
2021-04-24T04:37:03,42.805,6.029,-0.007,-0.015,0.002,102.0,104.0,101.0,13.4,1505.2,327.6,-0.8,1.9,2469.888,13.28,0.016,205.0
2021-04-24T04:40:03,42.805,6.029,0.002,-0.008,0.011,103.0,103.0,101.0,13.3,1505.2,327.0,-0.8,1.8,2469.841,13.28,0.008,166.0
2021-04-24T04:43:03,42.805,6.029,-0.003,-0.026,-0.019,102.0,103.0,100.0,13.4,1505.2,327.5,-0.7,1.8,2469.773,13.28,0.026,186.6
2021-04-24T04:46:03,42.805,6.029,-0.015,-0.047,0.001,102.0,104.0,100.0,13.4,1505.2,326.8,-0.7,1.8,2469.775,13.28,0.049,197.7
2021-04-24T04:49:03,42.805,6.029,0.006,-0.023,-0.004,100.0,104.0,101.0,13.3,1505.2,325.4,-0.7,1.9,2469.743,13.28,0.023,165.4
2021-04-24T04:52:03,42.805,6.029,0.013,-0.024,0.0,102.0,103.0,101.0,13.4,1505.2,325.3,-0.8,1.8,2469.669,13.28,0.027,151.6
2021-04-24T04:55:03,42.805,6.029,0.002,-0.016,-0.017,102.0,101.0,102.0,13.4,1505.2,326.8,-0.7,1.8,2469.606,13.28,0.016,172.9
2021-04-24T04:58:03,42.805,6.029,0.014,-0.014,-0.01,104.0,104.0,101.0,13.4,1505.2,326.7,-0.7,1.8,2469.674,13.28,0.019,135.0
2021-04-24T05:04:03,42.805,6.029,-0.001,-0.03,0.019,102.0,101.0,102.0,13.3,1505.2,328.7,-0.8,1.8,2469.72,13.28,0.03,181.9
2021-04-24T05:07:03,42.805,6.029,0.005,-0.01,-0.003,104.0,103.0,101.0,13.4,1505.2,327.6,-0.8,1.9,2469.728,13.28,0.011,153.4
2021-04-24T05:10:03,42.805,6.029,0.017,-0.021,0.012,103.0,105.0,101.0,13.3,1505.2,327.3,-0.8,1.9,2469.694,13.28,0.027,141.0
2021-04-24T05:13:03,42.805,6.029,0.017,0.01,0.038,101.0,103.0,101.0,13.3,1505.2,327.2,-0.8,1.8,2469.671,13.28,0.019,59.5
2021-04-24T05:16:03,42.805,6.029,-0.001,-0.006,0.034,101.0,103.0,103.0,13.4,1505.2,326.4,-0.8,1.8,2469.616,13.28,0.006,189.5
2021-04-24T05:19:03,42.805,6.029,0.0,-0.021,0.004,103.0,100.0,101.0,13.3,1505.2,324.5,-0.8,1.9,2469.522,13.28,0.021,180.0
2021-04-24T05:22:03,42.805,6.029,0.001,-0.007,0.038,102.0,102.0,102.0,13.3,1505.2,328.1,-0.7,1.8,2469.491,13.28,0.007,171.9
2021-04-24T05:25:03,42.805,6.029,0.009,-0.02,0.003,102.0,102.0,101.0,13.4,1505.2,327.0,-0.7,1.8,2469.518,13.28,0.021,155.8
2021-04-24T05:28:03,42.805,6.029,0.014,-0.001,0.008,103.0,103.0,102.0,13.3,1505.2,327.3,-0.7,1.8,2469.479,13.28,0.014,94.1
2021-04-24T05:31:03,42.805,6.029,0.009,-0.022,0.01,102.0,103.0,101.0,13.3,1505.2,326.0,-0.8,1.8,2469.511,13.28,0.023,157.8
2021-04-24T05:34:03,42.805,6.029,0.016,-0.016,-0.002,102.0,103.0,101.0,13.3,1505.2,326.6,-0.8,1.8,2469.525,13.28,0.022,135.0
2021-04-24T05:37:03,42.805,6.029,0.03,-0.015,0.028,103.0,103.0,100.0,13.4,1505.2,327.9,-0.8,1.8,2469.528,13.28,0.033,116.6
2021-04-24T05:40:03,42.805,6.029,0.038,-0.041,-0.001,101.0,103.0,102.0,13.4,1505.2,327.0,-0.8,1.8,2469.522,13.28,0.055,137.2
2021-04-24T05:43:03,42.805,6.029,0.017,-0.003,-0.013,101.0,103.0,101.0,13.3,1505.2,326.5,-0.7,1.8,2469.486,13.28,0.017,100.0
2021-04-24T05:46:03,42.805,6.029,0.026,-0.016,0.002,102.0,102.0,101.0,13.4,1505.2,325.5,-0.7,1.8,2469.462,13.28,0.03,121.6
2021-04-24T05:49:03,42.805,6.029,0.005,-0.008,0.036,102.0,100.0,102.0,13.4,1505.2,326.4,-0.8,1.8,2469.44,13.28,0.009,148.0
2021-04-24T05:52:03,42.805,6.029,0.009,-0.006,0.021,102.0,103.0,101.0,13.4,1505.2,327.4,-0.7,1.8,2469.489,13.28,0.01,123.7
2021-04-24T05:55:03,42.805,6.029,0.016,0.0,0.018,103.0,101.0,101.0,13.4,1505.2,325.4,-0.7,1.8,2469.436,13.28,0.016,90.0
2021-04-24T05:58:03,42.805,6.029,-0.002,-0.019,0.006,102.0,102.0,101.0,13.4,1505.2,327.3,-0.8,1.9,2469.422,13.28,0.019,186.0
2021-04-24T06:04:03,42.805,6.029,0.019,-0.024,-0.007,101.0,103.0,102.0,13.4,1505.2,327.1,-0.8,1.8,2469.389,13.28,0.03,141.6
2021-04-24T06:07:03,42.805,6.029,-0.001,-0.026,-0.006,104.0,102.0,102.0,13.3,1505.2,327.9,-0.8,1.8,2469.38,13.28,0.026,182.2
2021-04-24T06:10:03,42.805,6.029,0.005,-0.004,-0.011,104.0,102.0,102.0,13.4,1505.2,325.6,-0.8,1.8,2469.377,13.28,0.006,128.7
2021-04-24T06:13:03,42.805,6.029,0.014,-0.014,0.032,102.0,102.0,101.0,13.3,1505.2,324.0,-0.7,1.8,2469.383,13.28,0.019,135.0
2021-04-24T06:16:03,42.805,6.029,0.008,-0.012,0.01,102.0,104.0,102.0,13.4,1505.2,326.8,-0.8,1.8,2469.361,13.28,0.014,146.3
2021-04-24T06:19:03,42.805,6.029,0.005,-0.018,0.024,103.0,102.0,101.0,13.3,1505.2,325.4,-0.7,1.8,2469.398,13.28,0.018,164.5
2021-04-24T06:22:03,42.805,6.029,0.003,-0.011,0.014,103.0,103.0,101.0,13.4,1505.2,326.9,-0.8,1.8,2469.369,13.28,0.011,164.7
2021-04-24T06:25:03,42.805,6.029,0.015,-0.011,0.018,101.0,104.0,102.0,13.3,1505.2,328.4,-0.7,1.8,2469.375,13.28,0.018,126.3
2021-04-24T06:28:03,42.805,6.029,0.022,-0.005,0.015,101.0,102.0,101.0,13.4,1505.2,325.5,-0.8,1.8,2469.37,13.28,0.022,102.8
2021-04-24T06:31:03,42.805,6.029,0.002,-0.02,-0.013,103.0,103.0,102.0,13.4,1505.2,325.0,-0.8,1.9,2469.337,13.28,0.02,174.3
2021-04-24T06:34:03,42.805,6.029,0.016,-0.015,0.013,102.0,103.0,103.0,13.4,1505.2,326.4,-0.7,1.8,2469.342,13.28,0.021,133.1
2021-04-24T06:37:03,42.805,6.029,0.01,-0.009,0.017,103.0,102.0,101.0,13.4,1505.2,325.3,-0.8,1.8,2469.308,13.28,0.013,132.0
2021-04-24T06:40:03,42.805,6.029,0.004,-0.015,0.016,102.0,102.0,102.0,13.4,1505.2,325.7,-0.8,1.8,2469.322,13.28,0.015,165.1
2021-04-24T06:43:03,42.805,6.029,-0.007,-0.018,-0.019,103.0,102.0,102.0,13.4,1505.2,326.5,-0.7,1.8,2469.325,13.28,0.019,201.2
2021-04-24T06:46:03,42.805,6.029,-0.008,-0.012,0.004,103.0,102.0,102.0,13.3,1505.2,325.5,-0.8,1.8,2469.342,13.28,0.014,213.7
2021-04-24T06:49:03,42.805,6.029,0.007,-0.01,0.01,101.0,103.0,101.0,13.3,1505.2,325.2,-0.7,1.8,2469.304,13.28,0.012,145.0
2021-04-24T06:52:03,42.805,6.029,-0.001,-0.019,-0.01,102.0,103.0,102.0,13.4,1505.2,328.8,-0.8,1.8,2469.277,13.28,0.019,183.0
2021-04-24T06:55:03,42.805,6.029,0.002,-0.012,0.021,104.0,102.0,101.0,13.3,1505.2,327.3,-0.8,1.8,2469.256,13.28,0.012,170.5
2021-04-24T06:58:03,42.805,6.029,0.0,-0.017,0.002,102.0,104.0,103.0,13.4,1505.2,325.6,-0.7,1.8,2469.31,13.28,0.017,180.0
2021-04-24T07:04:03,42.805,6.029,0.007,-0.022,0.023,104.0,103.0,102.0,13.4,1505.2,325.1,-0.7,1.8,2469.244,13.28,0.023,162.4
2021-04-24T07:07:03,42.805,6.029,0.011,-0.012,0.002,103.0,102.0,102.0,13.3,1505.2,325.8,-0.7,1.8,2469.25,13.28,0.016,137.5
2021-04-24T07:10:03,42.805,6.029,0.016,-0.014,0.012,103.0,103.0,101.0,13.4,1505.2,327.2,-0.7,1.8,2469.246,13.28,0.021,131.2
2021-04-24T07:13:03,42.805,6.029,0.013,-0.028,0.001,103.0,104.0,101.0,13.3,1505.2,325.5,-0.7,1.8,2469.237,13.28,0.03,155.1
2021-04-24T07:16:03,42.805,6.029,0.002,-0.025,0.01,102.0,102.0,102.0,13.4,1505.2,324.4,-0.8,1.8,2469.234,13.28,0.025,175.4
2021-04-24T07:19:03,42.805,6.029,0.014,-0.005,0.037,103.0,103.0,101.0,13.4,1505.2,327.6,-0.7,1.8,2469.247,13.28,0.014,109.6
2021-04-24T07:22:03,42.805,6.029,-0.007,-0.008,0.004,104.0,104.0,101.0,13.4,1505.2,327.0,-0.8,1.9,2469.237,13.28,0.01,221.2
2021-04-24T07:25:03,42.805,6.029,-0.001,0.011,0.0,104.0,103.0,102.0,13.4,1505.2,325.5,-0.7,1.8,2469.221,13.28,0.011,354.8
2021-04-24T07:28:03,42.805,6.029,0.029,-0.014,0.013,102.0,104.0,102.0,13.4,1505.2,325.8,-0.8,1.9,2469.235,13.28,0.032,115.8
2021-04-24T07:31:03,42.805,6.029,-0.024,0.001,-0.003,105.0,102.0,102.0,13.4,1505.2,325.1,-0.8,1.9,2469.197,13.28,0.024,272.4
2021-04-24T07:34:03,42.805,6.029,0.027,-0.025,0.003,104.0,104.0,102.0,13.4,1505.2,325.6,-0.8,1.8,2469.177,13.28,0.036,132.8
2021-04-24T07:37:03,42.805,6.029,0.009,-0.014,0.007,104.0,103.0,102.0,13.4,1505.2,326.5,-0.8,1.8,2469.177,13.28,0.016,147.3
2021-04-24T07:40:03,42.805,6.029,-0.001,-0.004,0.006,103.0,104.0,104.0,13.4,1505.2,325.8,-0.8,1.8,2469.176,13.28,0.004,194.0
2021-04-24T07:43:03,42.805,6.029,0.005,-0.003,0.06,103.0,104.0,102.0,13.4,1505.2,323.7,-0.8,1.8,2469.166,13.28,0.005,121.0
2021-04-24T07:46:03,42.805,6.029,0.011,-0.032,-0.011,103.0,103.0,102.0,13.4,1505.2,323.9,-0.8,1.8,2469.195,13.28,0.033,161.0
2021-04-24T07:49:03,42.805,6.029,0.004,-0.003,0.004,103.0,105.0,101.0,13.4,1505.2,325.1,-0.8,1.9,2469.154,13.28,0.005,126.9
2021-04-24T07:52:03,42.805,6.029,0.002,-0.007,0.014,104.0,102.0,103.0,13.4,1505.2,325.6,-0.8,1.8,2469.165,13.28,0.007,164.1
2021-04-24T07:55:03,42.805,6.029,-0.006,-0.014,0.0,105.0,103.0,102.0,13.3,1505.2,329.4,-0.8,1.8,2469.189,13.28,0.015,203.2
2021-04-24T07:58:03,42.805,6.029,0.001,-0.017,0.006,104.0,104.0,102.0,13.4,1505.2,325.5,-0.7,1.8,2469.11,13.28,0.017,176.6
2021-04-24T08:04:03,42.805,6.029,0.015,0.0,0.004,104.0,104.0,102.0,13.4,1505.2,327.6,-0.7,1.8,2469.133,13.28,0.015,90.0
2021-04-24T08:07:03,42.805,6.029,0.018,-0.003,0.016,104.0,105.0,103.0,13.4,1505.2,326.9,-0.8,1.8,2469.155,13.28,0.018,99.5
2021-04-24T08:10:03,42.805,6.029,-0.01,0.004,0.028,105.0,105.0,102.0,13.4,1505.2,325.1,-0.7,1.8,2469.15,13.28,0.01,291.8
2021-04-24T08:13:03,42.805,6.029,-0.013,-0.009,0.012,104.0,105.0,103.0,13.4,1505.2,328.3,-0.8,1.8,2469.113,13.28,0.015,235.3
2021-04-24T08:16:03,42.805,6.029,0.019,-0.025,-0.013,105.0,104.0,104.0,13.3,1505.2,325.9,-0.7,1.9,2469.129,13.28,0.031,142.8
2021-04-24T08:19:03,42.805,6.029,0.027,-0.009,0.03,105.0,103.0,102.0,13.3,1505.2,324.0,-0.8,1.8,2469.11,13.28,0.028,108.4
2021-04-24T08:22:03,42.805,6.029,0.007,-0.001,0.021,104.0,104.0,103.0,13.4,1505.2,328.6,-0.7,1.8,2469.104,13.28,0.007,98.1
2021-04-24T08:25:03,42.805,6.029,-0.003,-0.007,0.019,104.0,104.0,102.0,13.4,1505.2,325.7,-0.7,1.8,2469.142,13.28,0.007,203.2
2021-04-24T08:28:03,42.805,6.029,0.03,-0.009,0.016,104.0,105.0,103.0,13.4,1505.2,325.9,-0.8,1.8,2469.076,13.28,0.031,106.7
2021-04-24T08:31:03,42.805,6.029,0.009,0.0,0.002,103.0,105.0,102.0,13.3,1505.2,328.5,-0.7,1.8,2469.102,13.28,0.009,90.0
2021-04-24T08:34:03,42.805,6.029,0.007,-0.016,0.012,104.0,106.0,102.0,13.4,1505.2,328.8,-0.7,1.8,2469.121,13.28,0.017,156.4
2021-04-24T08:37:03,42.805,6.029,0.014,-0.022,0.001,104.0,105.0,102.0,13.4,1505.2,325.5,-0.8,1.8,2469.06,13.28,0.026,147.5
2021-04-24T08:40:03,42.805,6.029,0.041,0.009,0.002,104.0,106.0,103.0,13.4,1505.2,326.4,-0.8,1.8,2469.106,13.28,0.041,77.6
2021-04-24T08:43:03,42.805,6.029,0.022,0.011,0.018,105.0,105.0,103.0,13.3,1505.2,326.6,-0.7,1.9,2469.052,13.28,0.024,63.4
2021-04-24T08:46:03,42.805,6.029,0.028,-0.012,0.035,105.0,104.0,102.0,13.4,1505.2,328.8,-0.7,1.8,2469.087,13.28,0.03,113.2
2021-04-24T08:49:03,42.805,6.029,0.046,-0.022,0.005,104.0,105.0,103.0,13.4,1505.2,325.2,-0.7,1.8,2469.101,13.28,0.05,115.6
2021-04-24T08:52:03,42.805,6.029,0.006,-0.006,0.035,104.0,104.0,103.0,13.4,1505.2,323.5,-0.8,1.8,2469.059,13.28,0.008,135.0
2021-04-24T08:55:03,42.805,6.029,0.008,-0.011,0.005,104.0,104.0,103.0,13.4,1505.2,324.6,-0.8,1.8,2469.078,13.28,0.013,144.0
2021-04-24T08:58:03,42.805,6.029,0.037,-0.019,-0.013,104.0,105.0,103.0,13.3,1505.2,324.1,-0.8,1.8,2469.022,13.28,0.041,117.2
2021-04-24T09:01:03,42.805,6.029,0.021,0.009,0.003,104.0,105.0,102.0,13.3,1505.2,324.2,-0.8,1.8,2469.071,13.28,0.022,66.8
2021-04-24T09:04:03,42.805,6.029,0.031,-0.005,-0.006,105.0,105.0,102.0,13.3,1505.2,326.9,-0.8,1.8,2469.057,13.28,0.031,99.2
2021-04-24T09:07:03,42.805,6.029,0.021,-0.021,0.028,106.0,104.0,102.0,13.4,1505.2,325.1,-0.8,1.8,2469.07,13.28,0.029,135.0
2021-04-24T09:10:03,42.805,6.029,0.014,-0.004,0.015,106.0,105.0,103.0,13.4,1505.2,324.5,-0.7,1.8,2469.039,13.28,0.014,105.9
2021-04-24T09:13:03,42.805,6.029,0.012,-0.026,-0.004,105.0,105.0,103.0,13.4,1505.2,323.8,-0.7,1.8,2469.046,13.28,0.028,155.2
2021-04-24T09:16:03,42.805,6.029,0.015,-0.021,-0.006,103.0,106.0,103.0,13.3,1505.2,323.8,-0.7,1.8,2469.012,13.28,0.025,144.5
2021-04-24T09:19:03,42.805,6.029,0.026,-0.014,0.005,105.0,104.0,103.0,13.3,1505.2,323.6,-0.7,1.8,2469.015,13.28,0.029,118.3
2021-04-24T09:22:03,42.805,6.029,0.021,-0.001,0.031,104.0,105.0,103.0,13.4,1505.2,323.6,-0.8,1.8,2469.06,13.28,0.021,92.7
2021-04-24T09:25:03,42.805,6.029,0.048,-0.007,0.021,104.0,103.0,103.0,13.4,1505.2,323.8,-0.8,1.8,2469.052,13.28,0.048,98.3
2021-04-24T09:28:03,42.805,6.029,0.022,-0.032,0.018,104.0,107.0,103.0,13.4,1505.2,324.3,-0.8,1.8,2469.024,13.28,0.038,145.5
2021-04-24T09:31:03,42.805,6.029,0.018,-0.009,-0.008,105.0,105.0,102.0,13.4,1505.2,324.2,-0.8,1.8,2469.011,13.28,0.02,116.6
2021-04-24T09:34:03,42.805,6.029,0.028,-0.009,-0.009,104.0,105.0,102.0,13.3,1505.2,324.5,-0.8,1.8,2469.061,13.28,0.029,107.8
2021-04-24T09:37:03,42.805,6.029,0.005,0.003,0.022,103.0,105.0,102.0,13.4,1505.2,328.8,-0.7,1.8,2469.057,13.28,0.005,59.0
2021-04-24T09:40:03,42.805,6.029,0.022,-0.01,0.019,104.0,104.0,102.0,13.3,1505.2,324.6,-0.8,1.9,2469.062,13.28,0.024,114.4
2021-04-24T09:43:03,42.805,6.029,0.015,-0.001,-0.006,104.0,103.0,102.0,13.3,1505.2,328.3,-0.8,1.8,2469.027,13.28,0.015,93.8
2021-04-24T09:46:03,42.805,6.029,0.015,-0.009,0.043,104.0,104.0,102.0,13.4,1505.2,325.1,-0.8,1.8,2469.01,13.28,0.017,121.0
2021-04-24T09:49:03,42.805,6.029,0.029,-0.005,0.02,104.0,104.0,103.0,13.4,1505.2,327.3,-0.8,1.8,2468.978,13.28,0.029,99.8
2021-04-24T09:52:03,42.805,6.029,0.038,0.004,-0.012,103.0,106.0,103.0,13.4,1505.2,324.4,-0.8,1.8,2468.979,13.28,0.038,84.0
2021-04-24T09:55:03,42.805,6.029,0.035,-0.008,0.005,104.0,106.0,102.0,13.3,1505.2,329.3,-0.7,1.8,2469.058,13.28,0.035,102.9